DW3560 Weather Reports


time (UTC)temp
C
wind
direction
speed
KPH
gust
KPH
rain 1hr
cm
rain 24hr
cm
rain mn
cm
humidity
%
barometer
mb
20260905040002 15 250 3.2 8.0 0.00 0.28 0.03 79 1012.6
20260905035502 15 252 3.2 8.0 0.00 0.30 0.03 78 1012.6
20260905035002 15 248 1.6 8.0 0.00 0.30 0.03 78 1012.6
20260905034502 15 247 3.2 9.7 0.00 0.33 0.03 78 1012.6
20260905034002 15 248 3.2 9.7 0.00 0.36 0.03 78 1012.6
20260905033523 15 251 1.6 4.8 0.00 0.36 0.03 78 1012.6
20260905033002 15 253 1.6 6.4 0.00 0.36 0.03 77 1012.6
20260905032523 15 254 1.6 6.4 0.00 0.36 0.03 76 1012.6
20260905032002 15 262 0.0 4.8 0.00 0.36 0.03 76 1012.6
20260905031502 15 265 1.6 6.4 0.00 0.36 0.03 75 1012.6
20260905031002 15 279 0.0 6.4 0.00 0.36 0.03 75 1012.6
20260905030502 16 315 0.0 3.2 0.00 0.36 0.03 74 1012.6
20260905030002 16 314 1.6 4.8 0.00 0.36 0.03 74 1012.6
20260905025523 16 314 1.6 4.8 0.00 0.36 0.03 74 1012.6
20260905025002 16 307 1.6 6.4 0.00 0.36 0.03 73 1012.6
20260905024502 16 303 1.6 6.4 0.00 0.36 0.03 73 1012.6
20260905024002 16 307 1.6 6.4 0.00 0.36 0.03 72 1012.6
20260905023502 16 310 1.6 6.4 0.00 0.36 0.03 72 1012.6
20260905023003 16 307 1.6 6.4 0.00 0.36 0.03 71 1012.6
20260905022502 17 300 1.6 4.8 0.00 0.36 0.03 71 1012.6
20260905022002 17 317 1.6 9.7 0.00 0.36 0.03 71 1012.6
20260905021502 17 326 3.2 9.7 0.00 0.36 0.03 70 1012.6
20260905021002 17 320 3.2 9.7 0.00 0.36 0.03 70 1012.6
20260905020502 17 316 1.6 6.4 0.00 0.36 0.03 69 1012.6
20260905020002 17 313 1.6 8.0 0.00 0.36 0.03 69 1012.6
20260905015502 18 285 3.2 8.0 0.00 0.36 0.03 68 1012.6
20260905015023 18 254 3.2 9.7 0.00 0.36 0.03 68 1012.6
20260905014523 18 289 3.2 14.5 0.00 0.36 0.03 66 1012.6
20260905014002 18 318 3.2 14.5 0.00 0.36 0.03 65 1012.6
20260905013502 18 300 3.2 17.7 0.00 0.36 0.03 64 1012.6
20260905013023 19 287 3.2 17.7 0.00 0.36 0.03 63 1012.6
20260905012502 19 296 3.2 11.3 0.00 0.36 0.03 64 1012.6
20260905012023 20 311 3.2 8.0 0.00 0.36 0.03 63 1012.6
20260905011502 20 314 4.8 12.9 0.00 0.36 0.03 63 1012.6
20260905011002 20 309 3.2 12.9 0.00 0.36 0.03 62 1012.6
20260905010502 20 294 3.2 9.7 0.00 0.36 0.03 60 1012.6
20260905010002 20 273 1.6 8.0 0.00 0.36 0.03 60 1012.6
20260905005502 20 309 3.2 17.7 0.00 0.36 0.03 60 1012.6
20260905005002 20 327 3.2 17.7 0.00 0.36 0.03 59 1012.6
20260905004502 20 321 3.2 11.3 0.00 0.36 0.03 59 1012.6
20260905004002 21 300 3.2 11.3 0.00 0.36 0.03 59 1012.6
20260905003502 21 295 3.2 9.7 0.00 0.36 0.03 59 1012.6
20260905003002 21 289 3.2 11.3 0.00 0.36 0.03 58 1012.6
20260905002502 21 261 3.2 11.3 0.00 0.36 0.03 58 1012.6
20260905002002 21 265 3.2 11.3 0.00 0.36 0.03 57 1012.6
20260905001502 21 306 3.2 11.3 0.00 0.36 0.03 56 1012.6
20260905001002 21 320 3.2 9.7 0.00 0.36 0.03 58 1012.6
20260905000523 21 326 3.2 14.5 0.00 0.36 0.03 58 1012.6
20260905000002 21 340 4.8 14.5 0.00 0.36 0.03 57 1012.6
20260904235502 21 335 3.2 12.9 0.00 0.36 0.03 56 1012.6
20260904235002 21 321 3.2 16.1 0.00 0.36 0.03 56 1012.6
20260904234523 21 335 3.2 16.1 0.00 0.36 0.03 57 1012.6
20260904234002 21 337 3.2 12.9 0.00 0.36 0.03 57 1012.6
20260904233502 21 321 3.2 16.1 0.00 0.36 0.03 57 1012.6
20260904233002 21 328 4.8 16.1 0.00 0.36 0.03 56 1012.6
20260904232502 21 338 4.8 16.1 0.00 0.36 0.03 55 1012.6
20260904232002 21 328 4.8 16.1 0.00 0.36 0.03 56 1012.6
20260904231502 21 312 4.8 12.9 0.00 0.36 0.03 57 1012.6
20260904231002 21 301 4.8 12.9 0.00 0.36 0.03 56 1012.6
20260904230502 21 303 3.2 14.5 0.00 0.36 0.03 57 1012.6
20260904230023 21 319 3.2 14.5 0.00 0.36 0.03 56 1012.6
20260904225502 21 323 3.2 12.9 0.00 0.36 0.03 56 1012.6
20260904225002 21 322 3.2 12.9 0.00 0.36 0.03 56 1012.6
20260904224523 21 332 4.8 14.5 0.00 0.36 0.03 56 1012.6
20260904224002 21 309 4.8 20.9 0.00 0.36 0.03 55 1012.6
20260904223502 21 295 3.2 20.9 0.00 0.36 0.03 55 1012.6
20260904223002 21 330 3.2 14.5 0.00 0.36 0.03 56 1012.6
20260904222502 21 335 3.2 14.5 0.00 0.36 0.03 55 1012.6
20260904222002 21 330 3.2 14.5 0.00 0.36 0.03 57 1012.6
20260904221502 21 320 3.2 14.5 0.00 0.36 0.03 56 1012.6
20260904221002 21 317 3.2 9.7 0.00 0.36 0.03 56 1012.6
20260904220523 21 313 3.2 9.7 0.00 0.36 0.03 56 1012.6
20260904220002 21 299 4.8 12.9 0.00 0.36 0.03 56 1012.6
20260904215502 21 323 4.8 16.1 0.00 0.36 0.03 57 1012.6
20260904215002 21 340 4.8 16.1 0.00 0.36 0.03 56 1012.6
20260904214502 21 323 3.2 16.1 0.00 0.36 0.03 56 1012.6
20260904214002 21 271 4.8 14.5 0.00 0.36 0.03 55 1012.6
20260904213502 21 250 4.8 14.5 0.00 0.36 0.03 53 1012.6
20260904213002 21 248 4.8 12.9 0.00 0.36 0.03 54 1012.6
20260904212502 21 241 3.2 12.9 0.00 0.36 0.03 54 1012.6
20260904212002 21 252 4.8 12.9 0.00 0.36 0.03 55 1012.6
20260904211502 20 255 4.8 12.9 0.00 0.36 0.03 52 1012.6
20260904211002 20 282 4.8 12.9 0.00 0.36 0.03 51 1012.6
20260904210502 20 320 4.8 12.9 0.00 0.36 0.03 54 1012.6
20260904210002 20 294 4.8 11.3 0.00 0.36 0.03 57 1012.6
20260904205523 20 267 4.8 16.1 0.00 0.36 0.03 56 1012.6
20260904205002 20 229 4.8 16.1 0.00 0.36 0.03 57 1012.6
20260904204502 20 230 6.4 12.9 0.00 0.36 0.03 56 1012.6
20260904204002 20 237 4.8 12.9 0.00 0.36 0.03 58 1012.6
20260904203502 20 261 4.8 11.3 0.00 0.36 0.03 58 1012.6
20260904203002 20 305 4.8 11.3 0.00 0.36 0.03 58 1012.6
20260904202502 20 277 4.8 11.3 0.00 0.36 0.03 57 1012.6
20260904202002 20 238 4.8 11.3 0.00 0.36 0.03 59 1012.6
20260904201502 20 252 3.2 11.3 0.00 0.36 0.03 60 1012.6
20260904201023 20 249 4.8 14.5 0.00 0.36 0.03 58 1012.6
20260904200523 20 263 4.8 14.5 0.00 0.36 0.03 59 1012.6
20260904200002 20 294 3.2 8.0 0.00 0.36 0.03 58 1012.6
20260904195502 20 314 3.2 8.0 0.00 0.36 0.03 59 1012.6
20260904195023 20 327 3.2 8.0 0.00 0.36 0.03 61 1012.6
20260904194502 20 323 3.2 8.0 0.00 0.36 0.03 61 1012.6
20260904194002 19 302 1.6 8.0 0.00 0.36 0.03 61 1012.6
20260904193502 19 286 1.6 9.7 0.00 0.36 0.03 64 1012.6
20260904193002 18 252 3.2 9.7 0.00 0.36 0.03 65 1012.6
20260904192502 18 228 3.2 12.9 0.00 0.36 0.03 65 1012.6
20260904192002 18 234 3.2 12.9 0.00 0.36 0.03 65 1012.6
20260904191502 18 230 4.8 11.3 0.00 0.36 0.03 65 1012.6
20260904191002 18 233 4.8 11.3 0.00 0.36 0.03 64 1012.6
20260904190502 18 247 3.2 11.3 0.00 0.36 0.03 65 1012.6
20260904190002 18 248 4.8 12.9 0.00 0.36 0.03 66 1012.6
20260904185523 18 259 3.2 12.9 0.00 0.36 0.03 66 1012.6
20260904185002 18 306 1.6 11.3 0.00 0.36 0.03 67 1012.6
20260904184502 18 260 3.2 9.7 0.00 0.36 0.03 70 1012.6
20260904184002 18 237 3.2 9.7 0.00 0.36 0.03 71 1012.6
20260904183502 17 227 3.2 11.3 0.00 0.36 0.03 73 1012.6
20260904183002 17 232 4.8 11.3 0.00 0.36 0.03 73 1012.6
20260904182502 17 247 3.2 11.3 0.00 0.36 0.03 73 1012.6
20260904182002 17 273 1.6 8.0 0.00 0.36 0.03 76 1012.6
20260904181502 16 244 3.2 9.7 0.00 0.36 0.03 79 1012.6
20260904181002 16 228 3.2 9.7 0.00 0.36 0.03 82 1012.6
20260904180502 16 230 3.2 8.0 0.00 0.36 0.03 85 1012.6
20260904180002 16 233 1.6 6.4 0.00 0.36 0.03 88 1012.6
20260904175502 15 232 1.6 6.4 0.00 0.36 0.03 89 1012.6
20260904175002 15 233 3.2 8.0 0.00 0.36 0.03 90 1012.6
20260904174502 15 233 3.2 9.7 0.00 0.36 0.03 91 1012.6
20260904174002 15 227 1.6 9.7 0.00 0.36 0.03 93 1012.6
20260904173502 15 225 1.6 6.4 0.00 0.36 0.03 94 1012.6
20260904173002 15 231 1.6 4.8 0.00 0.36 0.03 94 1012.6
20260904172502 14 234 1.6 4.8 0.00 0.36 0.03 95 1012.6
20260904172002 14 238 1.6 6.4 0.00 0.36 0.03 95 1012.6
20260904171502 14 239 1.6 6.4 0.00 0.36 0.03 95 1012.6
20260904171023 14 239 1.6 6.4 0.00 0.36 0.03 95 1012.6
20260904170502 14 239 1.6 6.4 0.00 0.36 0.03 95 1012.6
20260904170002 14 236 1.6 6.4 0.00 0.36 0.03 95 1012.6
20260904165502 14 234 1.6 6.4 0.00 0.36 0.03 95 1012.6
20260904165002 14 232 1.6 6.4 0.00 0.36 0.03 95 1012.6
20260904164502 14 231 1.6 6.4 0.00 0.36 0.03 95 1012.6
20260904164002 14 230 1.6 4.8 0.00 0.36 0.03 96 1012.6
20260904163502 14 229 1.6 4.8 0.00 0.36 0.03 96 1012.6
20260904163002 14 228 1.6 4.8 0.00 0.36 0.03 96 1012.6
20260904162523 14 229 1.6 4.8 0.00 0.36 0.03 96 1012.6
20260904162002 14 229 1.6 4.8 0.00 0.36 0.03 96 1012.6
20260904161502 14 229 1.6 4.8 0.00 0.36 0.03 96 1012.6
20260904161002 14 225 1.6 6.4 0.00 0.36 0.03 96 1012.6
20260904160502 14 208 3.2 6.4 0.00 0.36 0.03 96 1012.6
20260904160023 14 188 3.2 8.0 0.00 0.36 0.03 96 1012.6
20260904155502 14 175 3.2 8.0 0.00 0.36 0.03 96 1012.6
20260904155002 14 165 3.2 8.0 0.00 0.36 0.03 96 1012.6
20260904154523 14 164 3.2 8.0 0.00 0.36 0.03 96 1012.6
20260904154002 14 164 3.2 9.7 0.00 0.36 0.03 96 1012.6
20260904153502 14 168 3.2 9.7 0.00 0.36 0.03 96 1012.6
20260904153002 14 175 3.2 8.0 0.00 0.36 0.03 96 1012.6
20260904152502 13 183 3.2 6.4 0.00 0.36 0.03 96 1012.6
20260904152002 13 189 3.2 6.4 0.00 0.36 0.03 96 1012.6
20260904151502 13 195 3.2 6.4 0.00 0.36 0.03 96 1012.6
20260904151002 13 196 3.2 6.4 0.00 0.36 0.03 96 1012.6
20260904150502 13 197 3.2 6.4 0.00 0.36 0.03 96 1012.6
20260904150002 13 197 3.2 6.4 0.00 0.36 0.03 96 1012.6
20260904145502 13 198 1.6 6.4 0.00 0.36 0.03 96 1012.6
20260904145002 13 198 3.2 6.4 0.00 0.36 0.03 96 1012.6
20260904144502 13 196 1.6 8.0 0.00 0.36 0.03 96 1012.6
20260904144002 13 197 1.6 8.0 0.00 0.36 0.03 96 1012.6
20260904143502 13 208 1.6 8.0 0.00 0.36 0.03 96 1012.6
20260904143002 13 210 1.6 8.0 0.00 0.36 0.03 96 1012.6
20260904142502 13 211 1.6 4.8 0.00 0.36 0.03 96 1012.6
20260904142002 13 211 1.6 4.8 0.00 0.36 0.03 95 1012.6
20260904141502 13 213 3.2 4.8 0.00 0.36 0.03 95 1012.6
20260904141002 13 216 3.2 4.8 0.00 0.36 0.03 95 1012.6
20260904140502 13 218 1.6 6.4 0.00 0.36 0.03 95 1012.6
20260904140023 13 220 1.6 6.4 0.00 0.36 0.03 95 1012.6
20260904135502 13 221 1.6 4.8 0.00 0.36 0.03 96 1012.6
20260904135002 13 223 1.6 6.4 0.00 0.36 0.03 96 1012.6
20260904134502 13 225 1.6 6.4 0.00 0.36 0.03 96 1012.6
20260904134002 13 228 1.6 6.4 0.00 0.36 0.03 95 1012.6
20260904133502 13 231 1.6 6.4 0.00 0.36 0.03 95 1012.6
20260904133002 13 232 1.6 4.8 0.00 0.36 0.03 95 1012.6
20260904132502 13 233 1.6 4.8 0.00 0.36 0.03 95 1012.6
20260904132002 13 234 0.0 3.2 0.00 0.36 0.03 96 1012.6
20260904131502 13 234 1.6 3.2 0.00 0.36 0.03 96 1012.6
20260904131002 13 234 1.6 3.2 0.00 0.36 0.03 96 1012.6
20260904130502 13 234 0.0 3.2 0.00 0.36 0.03 95 1012.6
20260904130002 13 234 0.0 1.6 0.00 0.36 0.03 95 1012.6
20260904125502 13 234 0.0 3.2 0.00 0.36 0.03 95 1012.6
20260904125023 13 234 1.6 3.2 0.00 0.36 0.03 95 1012.6
20260904124502 13 234 0.0 3.2 0.00 0.36 0.03 95 1012.6
20260904124002 13 235 1.6 4.8 0.00 0.36 0.03 95 1012.6
20260904123502 13 235 1.6 4.8 0.00 0.36 0.03 95 1012.6
20260904123023 13 236 1.6 3.2 0.00 0.36 0.03 95 1012.6
20260904122523 13 236 1.6 3.2 0.00 0.36 0.03 95 1012.6
20260904122002 13 236 1.6 3.2 0.00 0.36 0.03 95 1012.6
20260904121502 13 237 1.6 3.2 0.00 0.36 0.03 95 1012.6
20260904121002 13 237 0.0 3.2 0.00 0.36 0.03 95 1012.6
20260904120502 13 237 1.6 3.2 0.00 0.36 0.03 95 1012.6
20260904120003 13 237 1.6 3.2 0.00 0.36 0.03 95 1012.6
20260904115503 13 237 0.0 3.2 0.00 0.36 0.03 95 1012.6
20260904115002 13 237 0.0 1.6 0.00 0.36 0.03 95 1012.6
20260904114502 13 236 1.6 6.4 0.00 0.36 0.03 95 1012.6
20260904114002 13 236 1.6 6.4 0.00 0.36 0.03 95 1012.5
20260904113503 13 235 1.6 4.8 0.00 0.36 0.03 95 1012.5
20260904113003 13 232 1.6 6.4 0.00 0.36 0.03 95 1012.5
20260904112502 13 227 1.6 6.4 0.00 0.36 0.03 95 1012.5
20260904112002 13 218 1.6 8.0 0.00 0.36 0.03 95 1012.5
20260904111502 13 221 1.6 8.0 0.00 0.36 0.03 95 1012.5
20260904111002 13 249 1.6 4.8 0.00 0.36 0.03 95 1012.5
20260904110502 13 257 1.6 3.2 0.00 0.36 0.03 95 1012.5
20260904110024 13 257 0.0 3.2 0.00 0.36 0.03 95 1012.3
20260904105502 13 257 0.0 4.8 0.00 0.36 0.03 95 1012.3
20260904105002 13 255 1.6 6.4 0.00 0.36 0.03 95 1012.3
20260904104502 13 254 1.6 8.0 0.00 0.36 0.03 95 1012.3
20260904104002 13 256 1.6 8.0 0.00 0.36 0.03 95 1012.3
20260904103502 13 247 1.6 8.0 0.00 0.36 0.03 95 1012.3
20260904103002 13 249 3.2 11.3 0.00 0.36 0.03 95 1012.3
20260904102523 14 267 3.2 11.3 0.00 0.36 0.03 95 1012.3
20260904102002 14 286 1.6 6.4 0.00 0.36 0.03 95 1012.3
20260904101502 14 275 0.0 3.2 0.00 0.36 0.03 95 1012.3
20260904101002 14 276 1.6 4.8 0.00 0.36 0.03 95 1012.3
20260904100502 14 279 1.6 4.8 0.00 0.36 0.03 95 1012.3
20260904100002 14 294 0.0 4.8 0.00 0.36 0.03 95 1012.3
20260904095502 14 303 0.0 3.2 0.00 0.36 0.03 95 1012.3
20260904095023 14 323 1.6 6.4 0.00 0.36 0.03 95 1012.3
20260904094523 14 335 1.6 8.0 0.00 0.36 0.03 95 1012.3
20260904094023 14 340 0.0 8.0 0.00 0.36 0.03 95 1012.1
20260904093503 14 323 0.0 1.6 0.00 0.36 0.03 95 1012.1
20260904093023 14 323 0.0 4.8 0.00 0.36 0.03 95 1012.1
20260904092502 14 322 1.6 4.8 0.00 0.36 0.03 95 1012.1
20260904092023 14 313 1.6 8.0 0.00 0.36 0.03 95 1012.1
20260904091524 14 318 1.6 8.0 0.00 0.36 0.03 95 1012.1
20260904091002 14 303 1.6 6.4 0.00 0.36 0.03 95 1012.1
20260904090502 14 270 1.6 9.7 0.00 0.36 0.03 95 1012.1
20260904090002 14 255 3.2 11.3 0.00 0.36 0.03 95 1012.1
20260904085502 14 248 4.8 11.3 0.00 0.36 0.03 95 1012.1
20260904085023 15 252 3.2 11.3 0.00 0.36 0.03 95 1012.1
20260904084502 15 268 3.2 12.9 0.00 0.36 0.03 95 1012.1
20260904084023 15 264 3.2 12.9 0.00 0.36 0.03 94 1012.0
20260904083523 15 258 1.6 8.0 0.00 0.36 0.03 95 1012.0
20260904083002 15 251 1.6 6.4 0.03 0.36 0.03 94 1012.0
20260904082503 15 248 1.6 6.4 0.03 0.36 0.03 95 1012.0
20260904082003 15 252 1.6 6.4 0.03 0.36 0.03 95 1012.0
20260904081502 15 250 1.6 6.4 0.03 0.36 0.03 95 1012.0
20260904081003 15 256 1.6 6.4 0.03 0.36 0.03 95 1012.0
20260904080502 15 270 1.6 6.4 0.03 0.36 0.03 94 1012.0
20260904080002 15 285 1.6 4.8 0.03 0.36 0.03 94 1012.0
20260904075502 15 323 1.6 4.8 0.03 0.36 0.03 94 1012.0
20260904075003 15 355 0.0 3.2 0.03 0.36 0.03 94 1012.0
20260904074502 14 355 0.0 1.6 0.03 0.36 0.03 94 1012.0
20260904074002 14 355 0.0 1.6 0.03 0.36 0.03 94 1013.6
20260904073502 14 355 0.0 3.2 0.03 0.36 0.03 94 1013.6
20260904073002 14 355 0.0 3.2 0.00 0.33 0.00 94 1013.6
20260904072502 14 355 0.0 3.2 0.00 0.33 0.00 94 1013.6
20260904072002 14 355 0.0 3.2 0.03 0.33 0.00 94 1013.6
20260904071502 14 355 0.0 1.6 0.05 0.33 0.00 94 1013.6
20260904071002 14 355 0.0 1.6 0.05 0.33 0.00 94 1013.6
20260904070503 14 0 0.0 0.0 0.05 0.33 0.00 94 1013.6
20260904070030 14 355 0.0 4.8 0.08 0.33 0.00 94 1013.6
20260904065502 14 355 1.6 4.8 0.10 0.33 0.33 94 1013.6
20260904065002 14 352 1.6 6.4 0.13 0.33 0.33 94 1013.6
20260904064502 14 354 3.2 9.7 0.13 0.33 0.33 94 1013.6
20260904064002 14 350 3.2 9.7 0.15 0.33 0.33 94 1013.6
20260904063523 14 340 3.2 9.7 0.15 0.33 0.33 93 1013.6
20260904063003 15 335 3.2 16.1 0.18 0.33 0.33 94 1013.6
20260904062503 15 327 3.2 16.1 0.18 0.33 0.33 94 1013.6
20260904062002 15 320 4.8 14.5 0.18 0.30 0.30 94 1013.6
20260904061502 15 322 3.2 12.9 0.15 0.28 0.28 93 1013.6
20260904061002 15 330 3.2 9.7 0.15 0.28 0.28 93 1013.6
20260904060503 15 314 3.2 12.9 0.15 0.28 0.28 93 1013.6
20260904060002 15 283 3.2 12.9 0.13 0.25 0.25 93 1013.6
20260904055524 15 283 1.6 11.3 0.10 0.23 0.23 93 1013.6
20260904055002 15 266 3.2 9.7 0.10 0.20 0.20 93 1013.6
20260904054503 15 251 3.2 14.5 0.10 0.20 0.20 93 1013.6
20260904054003 15 247 3.2 14.5 0.08 0.18 0.18 93 1013.6
20260904053524 15 256 3.2 11.3 0.08 0.18 0.18 93 1013.6
20260904053002 16 278 1.6 8.0 0.05 0.15 0.15 93 1013.6
20260904052502 16 264 3.2 6.4 0.05 0.15 0.15 93 1013.6
20260904052003 16 255 3.2 6.4 0.03 0.13 0.13 92 1013.6
20260904051503 16 256 1.6 6.4 0.03 0.13 0.13 93 1013.6
20260904051024 16 257 0.0 6.4 0.03 0.13 0.13 92 1013.6
20260904050503 16 266 0.0 6.4 0.05 0.13 0.13 92 1013.6
20260904050003 16 274 0.0 6.4 0.05 0.13 0.13 92 1013.6
20260904045524 16 300 0.0 6.4 0.08 0.13 0.13 92 1013.6
20260904045024 16 267 1.6 6.4 0.05 0.10 0.10 92 1013.6
20260904044502 16 251 1.6 6.4 0.08 0.10 0.10 92 1013.6
20260904044003 16 257 1.6 6.4 0.10 0.10 0.10 92 1013.6
20260904043503 16 269 1.6 4.8 0.10 0.10 0.10 92 1013.6
20260904043003 16 282 1.6 4.8 0.10 0.10 0.10 92 1013.6
20260904042523 16 291 1.6 4.8 0.10 0.10 0.10 91 1013.6
20260904042002 16 294 0.0 3.2 0.10 0.10 0.10 91 1013.6
20260904041524 16 295 0.0 3.2 0.10 0.10 0.10 91 1013.6
20260904041002 16 293 0.0 4.8 0.10 0.10 0.10 91 1013.6
20260904040524 16 290 0.0 4.8 0.08 0.08 0.08 91 1013.6